Regional Weather Roundup
Issued by NWS

Home | Current Version | Previous Version | Text Only | Print | Product List | Glossary Off
Versions: 1 2 3 4 5 6 7 8 9 10 11 12 13 14 15 16 17 18 19 20 21 22 23 24 25 26 27

000
ASUS45 KCYS 262010
RWRWY

WYOMING REGIONAL WEATHER ROUNDUP
NATIONAL WEATHER SERVICE CHEYENNE WY
200 PM MDT SUN MAR 26 2017

NOTE:  "FAIR" INDICATES FEW OR NO CLOUDS BELOW 12,000 FEET
WITH NO SIGNIFICANT WEATHER AND/OR OBSTRUCTIONS TO VISIBILITY.

WYZ001-262100-
YELLOWSTONE NATIONAL PARK

CITY           SKY/WX    TMP DP  RH WIND       PRES   REMARKS
LK YELLOWSTONE   N/A     36  16  44 VRB3      29.96F
W YELLOWSTONE  NOT AVBL

$$
WYZ002>013-054>058-071-098>099-262100-
NORTHERN WYOMING

CITY           SKY/WX    TMP DP  RH WIND       PRES   REMARKS
JACKSON        MOSUNNY   43  19  39 S15       29.97F
CODY           FAIR      51  20  29 SE9       29.91F
GREYBULL       FAIR      53  31  42 VRB5      29.92F
WORLAND        FAIR      53  27  36 W5        29.93F
SHERIDAN       FAIR      55  26  32 CALM      29.92F
BUFFALO        FAIR      52  26  36 NW3       29.94F
GILLETTE       PTSUNNY   49  35  58 E6        29.93F
HULETT         MOCLDY    46  36  66 NE3       29.95S
NEWCASTLE      CLOUDY    43  34  70 N14G21    29.93F

$$
WYZ014>020-022>026-101>103-262100-
CENTRAL WYOMING

CITY           SKY/WX    TMP DP  RH WIND       PRES   REMARKS
BIG PINEY      FAIR      41  16  36 VRB6      30.00F
PINEDALE       FAIR      36  23  60 NW7       30.01F WCI  30
DUBOIS         FAIR      43  14  31 W13       29.92F
LANDER         FAIR      52  30  43 SE9G18    29.91F
RIVERTON       FAIR      50  27  40 SE10      29.94F
CASPER         LGT RAIN  42  35  76 SW6       29.97S
DOUGLAS        CLOUDY    45  35  68 NW10      29.97S

$$
WYZ021-027>030-104>119-262100-
SOUTHERN WYOMING

CITY           SKY/WX    TMP DP  RH WIND       PRES   REMARKS
EVANSTON       PTSUNNY   42  22  44 W10       30.02F
KEMMERER         N/A     37  21  52 NW10      30.02S WCI  30
FORT BRIDGER   FAIR      44  20  38 NW10      30.04F
ROCK SPRINGS   FAIR      43  21  41 VRB3      30.00F
DIXON            N/A     47  28  48 CALM      30.03F
RAWLINS        LGT RAIN  40  32  73 NW12      29.98F WCI  33
SARATOGA       CLOUDY    41  32  70 NW10G18   29.99S
LARAMIE        CLOUDY    42  29  59 N16       29.94S
CHEYENNE       CLOUDY    42  34  73 N16G22    29.93S
TORRINGTON     CLOUDY    48  35  60 NW14      29.92S
PINE BLUFFS    CLOUDY    46  36  66 NW14G23   29.93R

$$




USA.gov is the U.S. government's official web portal to all federal, state and local government web resources and services.